Location: Hurstbourne Priors
(51.2000°N, 1.3667°W)
Time: 20:56:13
(UTC+00:00)

Altair - Pass Details

Date: 19 April 2021
Orbit: 1501 x 1683 km, 47.2° (Epoch: 13 May)

Event Time Altitude Azimuth Distance (km) Brightness Sun altitude
Rises 13:39:09 0° 285° (WNW) 4,710 10.2 45.8°
Reaches altitude 10° 13:43:45 10° 266° (W) 3,695 10.1 45.3°
Maximum altitude 13:48:48 16° 233° (SW) 3,202 10.4 44.9°
Drops below altitude 10° 13:53:48 10° 199° (SSW) 3,647 10.4 44.4°
Sets 13:58:19 0° 179° (S) 4,619 10.5 43.9°
